Location: Most
(50.5330°N, 13.6500°E)
Time: 19:26:27
(UTC+02:00)

ISS - Pass Details

Date: 19 May 2021
Orbit: 417 x 422 km, 51.6° (Epoch: 16 June)

Event Time Altitude Azimuth Distance (km) Brightness Sun altitude
Rises 02:06:43 0° 286° (WNW) 2,372 0.1 -18.3°
Reaches altitude 10° 02:08:54 10° 279° (W) 1,506 -1.0 -18.2°
Enters shadow 02:09:22 13° 275° (W) 1,328 -1.3 -18.1°
